Regional Weather Roundup
Issued by NWS

Home | Current Version | Previous Version | Text Only | Print | Product List | Glossary Off
Versions: 1 2 3 4 5 6 7 8 9 10 11 12 13 14 15 16 17 18 19 20 21 22 23 24 25 26 27 28 29 30 31 32 33 34 35 36 37 38 39 40 41 42 43 44 45 46 47 48 49 50

000
ASUS43 KMPX 010701
RWRMN
WEATHER ROUNDUP FOR MINNESOTA
NATIONAL WEATHER SERVICE TWIN CITIES/CHANHASSEN MN
200 AM CDT FRI AUG 01 2014


NOTE: "FAIR" INDICATES FEW OR NO CLOUDS BELOW 12,000 FEET WITH NO
SIGNIFICANT WEATHER AND/OR OBSTRUCTIONS TO VISIBILITY. N/A MEANS
CURRENT SKY AND/OR WEATHER CONDITIONS ARE NOT AVAILABLE.

MNZ060>063-068>070-010800-
   Twin Cities Metro

CITY           SKY/WX    TMP DP  RH WIND       PRES   REMARKS
TWIN CITIES    CLEAR     69  60  73 S3        30.01F
ST PAUL        CLEAR     66  61  84 CALM      30.01S
CRYSTAL        CLEAR     66  57  72 W3        30.00F
BLAINE         CLEAR     66  61  82 CALM      30.01S
LAKEVILLE      CLEAR     63  57  82 W3        30.02F
EDEN PRAIRIE   CLEAR     64  59  83 SW5       30.01F
SOUTH ST PAUL  CLEAR     68  58  72 CALM      30.01S
LAKE ELMO      FAIR      61  59  94 CALM      30.02S
$$
MNZ001>005-007-008-013>017-022>024-027-028-010800-
   Northwest Minnesota

CITY           SKY/WX    TMP DP  RH WIND       PRES   REMARKS
BEMIDJI        CLEAR     54  53  95 CALM      30.03S
HALLOCK        CLEAR     61  57  88 CALM      30.02S
ROSEAU           N/A     63  54  72 CALM      30.01F
WARROAD        CLEAR     59  55  88 SW3       30.01F
THIEF RVR FALL CLEAR     61  59  94 CALM      30.02F
CROOKSTON      PTCLDY    64  63  94 CALM      30.03S
FOSSTON        PTCLDY    57  55  94 CALM      30.04S FOG
DETROIT LAKES  CLEAR     64  63  94 CALM      30.05S
MOORHEAD       CLEAR     64  64 100 CALM      30.03S
PARK RAPIDS    CLEAR     57  56  96 CALM      30.04S FOG
$$
MNZ006-009>011-018-025>026-010800-
   North Central Minnesota

CITY           SKY/WX    TMP DP  RH WIND       PRES   REMARKS
BAUDETTE       CLEAR     58  57  97 SW3       30.01F
FLAG ISLAND    CLEAR     68  64  88 CALM      29.99F
INTL FALLS     CLEAR     49  48  97 CALM      30.01R
WASKISH        CLEAR     55  55 100 CALM      30.01S
BIG FORK       PTCLDY    54  52  94 CALM      30.03S
LONGVILLE      MOCLDY    55  55 100 CALM      30.02F FOG
GRAND RAPIDS   CLEAR     57  54  88 CALM      30.02F
CRANE LAKE     CLEAR     48  46  93 CALM      30.03R FOG
ORR            CLEAR     52  48  87 CALM      30.00S FOG
COOK           CLEAR     52  52 100 CALM      30.02S
$$
MNZ012-019>021-037-010800-
   Northeast Minnesota

CITY           SKY/WX    TMP DP  RH WIND       PRES   REMARKS
DULUTH         PTCLDY    60  54  80 CALM      30.02S
ELY            CLEAR     50  48  93 CALM      30.02S
HIBBING        CLEAR     51  49  92 CALM      30.02S FOG
EVELETH        CLEAR     50  50 100 CALM      30.03S
DULUTH HARBOR  MOCLDY    64  61  88 CALM      30.00S
TWO HARBORS    CLEAR     54  48  82 CALM      29.99S
SILVER BAY     CLEAR     48  48 100 CALM      29.99F
GRAND MARAIS     N/A     54  49  83 NE3       29.99R
G MARAIS ARPRT CLEAR     48  45  87 E3        30.03R
$$
MNZ029>031-032-039>041-046>048-054>057-064-010800-
   West Central Minnesota

CITY           SKY/WX    TMP DP  RH WIND       PRES   REMARKS
FERGUS FALLS   CLEAR     64  59  82 CALM      30.03F
WHEATON        CLEAR     59  55  88 CALM      30.05F
MORRIS         CLEAR     61  61 100 CALM      30.03F
ALEXANDRIA     CLEAR     63  61  93 W3        30.06S
ELBOW LAKE     FAIR      63  61  93 CALM      30.04S
WADENA         CLEAR     57  55  94 CALM      30.04S
GLENWOOD       CLEAR     63  59  88 W3        30.05F
APPLETON       CLEAR     61  57  88 CALM      30.03F
BENSON         FOG       59  57  94 CALM      30.04S VSB 3/4
ORTONVILLE     CLEAR     63  57  82 W3        30.04F
MADISON        CLEAR     61  57  88 W3        30.05S
WILLMAR        FAIR      61  55  82 CALM      30.05F
$$
MNZ033>034-036-042>043-049>051-058-059-010800-
   Central Minnesota

CITY           SKY/WX    TMP DP  RH WIND       PRES   REMARKS
ST CLOUD       CLEAR     62  58  86 CALM      30.01F
SAUK CENTRE    FAIR      60  58  93 CALM      30.04F
PAYNESVILLE    CLEAR     55  54  98 SW3       30.04F
AITKIN         HAZE      57  52  82 CALM      30.01F VSB 1/4
PINE RIVER     CLEAR     55  55 100 CALM      30.06S FOG
BRAINERD       CLEAR     57  57 100 CALM      30.03S FOG
STAPLES        CLEAR     57  57 100 CALM      30.03F
LONG PRAIRIE   FAIR      59  59 100 CALM      30.04F
LITTLE FALLS   CLEAR     59  57  94 CALM      30.03S FOG
LITCHFIELD       N/A     64  61  88 CALM      30.04S
BUFFALO        CLEAR     65  59  79 CALM      30.03S
MAPLE LAKE     CLEAR     64  60  87 W3        30.03F
$$
MNZ037-044-045-052-053-010800-
   East Central Minnesota

CITY           SKY/WX    TMP DP  RH WIND       PRES   REMARKS
PRINCETON      CLEAR     61  59  94 CALM      30.01F
MORA           CLEAR     63  59  88 CALM      30.02F
CAMBRIDGE      CLEAR     66  55  68 CALM      29.99F
RUSH CITY      MOCLDY    61  59  92 CALM      30.00F
MOOSE LAKE     FOG       55  55 100 CALM      29.99F VSB 3/4
HINCKLEY       FAIR      59  59 100 CALM      30.00F
CLOQUET        CLEAR     57  54  88 CALM      30.02S
MCGREGOR       CLEAR     57  55  94 CALM      30.02F
$$
MNZ071>073-080-081-089-090-097-098-010800-
   Southwest Minnesota

CITY           SKY/WX    TMP DP  RH WIND       PRES   REMARKS
MONTEVIDEO     CLEAR     63  54  72 CALM      30.05S
GRANITE FALLS  CLEAR     57  55  92 W3        30.06S
CANBY          CLEAR     60  56  87 SW5       30.06F
MARSHALL       CLEAR     57  52  82 W5        30.05S
REDWOOD FALLS  CLEAR     62  57  83 CALM      30.04F
OLIVIA         CLEAR     61  57  88 CALM      30.04S
PIPESTONE      CLEAR     63  55  77 CALM      30.07F
WINDOM         CLEAR     57  54  88 CALM      30.07S
WORTHINGTON    CLEAR     59  55  88 W5        30.08S
JACKSON        CLEAR     59  55  88 CALM      30.07F
TRACY          CLEAR     64  59  84 SW6       30.06F
SLAYTON        CLEAR     58  56  92 CALM      30.08S
$$
MNZ065>067-074>077-082>085-091>093-010800-
   South Central Minnesota

CITY           SKY/WX    TMP DP  RH WIND       PRES   REMARKS
MANKATO        CLEAR     64  54  68 SW6       30.04S
NEW ULM        CLEAR     61  59  94 CALM      30.04F
ST JAMES       CLEAR     59  55  88 CALM      30.06S
FAIRMONT       CLEAR     63  55  77 W3        30.06S
GLENCOE        CLEAR     65  58  78 SW3       30.03S
FARIBAULT      CLEAR     59  54  82 CALM      30.04S
OWATONNA       CLEAR     57  54  88 CALM      30.05S
WASECA         CLEAR     55  50  82 CALM      30.06F
ALBERT LEA     CLEAR     59  57  94 SW3       30.06S
$$
MNZ078>079-086>088-094>096-010800-
   Southeast Minnesota

CITY           SKY/WX    TMP DP  RH WIND       PRES   REMARKS
ROCHESTER      CLEAR     60  55  83 SW8       30.06F
RED WING       CLEAR     61  57  88 CALM      30.01S
STANTON        CLEAR     60  56  87 SW6       30.02S
DODGE CENTER   CLEAR     61  55  82 W6        30.05S
WINONA         CLEAR     61  59  94 CALM      30.02S
AUSTIN         CLEAR     57  55  94 CALM      30.06S
PRESTON        CLEAR     62  59  90 SW6       30.05F
$$
ABBREVIATIONS USED IN REMARKS
   TC - TEMPERATURES IN CELSIUS
  WCI - WIND CHILL INDEX
   HX - HEAT INDEX
  VSB - VISIBILITY
$$


USA.gov is the U.S. government's official web portal to all federal, state and local government web resources and services.